Other Public Products
Issued by NWS Grand Forks, ND

Home | Current Version | Previous Version | Graphics & Text | Print | Product List | Glossary On
Versions: 1 2 3 4 5 6 7 8 9 10 11 12 13 14 15 16 17 18 19 20 21 22 23 24 25 26 27 28 29 30 31 32 33 34 35 36 37 38 39 40 41 42 43 44 45 46 47 48 49 50
000
FPUS83 KFGF 011810
OPUFGF
PRAIRIE TO PINES WEATHER ROUNDUP
NATIONAL WEATHER SERVICE EASTERN NORTH DAKOTA/GRAND FORKS ND
100 PM CDT SAT OCT 01 2016

 **SATELLITE DATA USED TO AUGMENT SKY COVER AT AUTOMATED STATIONS**
 *****  WEATHER ACROSS EASTERN NORTH DAKOTA  *****

CITY           SKY/WX    TMP DP  RH WIND       PRES   REMARKS
GRAND FORKS    CLOUDY    64  53  67 SE8       30.12F
6HR MIN TEMP:  51; 6HR MAX TEMP:  64;

GRAND FORKS AF MOSUNNY   62  53  72 SE9       30.12F
GRAND CITY NWS   N/A     63 N/A N/A E9          N/A
BUXTON         NOT AVBL
DEVILS LAKE    SUNNY     66  52  60 SE12      30.08F
6HR MIN TEMP:  56; 6HR MAX TEMP:  66; 6HR PCP: TRACE;

FARGO          SUNNY     69  54  58 SE10      30.12F
6HR MIN TEMP:  54; 6HR MAX TEMP:  69;

WAHPETON ARPT  CLEAR     68  52  56 SE7       30.12F
$$

 *****  WEATHER ACROSS CENTRAL AND WESTERN NORTH DAKOTA  *****

CITY           SKY/WX    TMP DP  RH WIND       PRES   REMARKS
JAMESTOWN      SUNNY     70  50  49 S15       30.06F
6HR MIN TEMP:  50; 6HR MAX TEMP:  70;

BISMARCK       SUNNY     71  50  47 SE15      30.00F
6HR MIN TEMP:  50; 6HR MAX TEMP:  71;

MINOT          SUNNY     69  50  50 SE10      29.98F
6HR MIN TEMP:  44; 6HR MAX TEMP:  69;

MINOT AFB      SUNNY     67  50  54 SE9       29.98F
6HR MIN TEMP:  45; 6HR MAX TEMP:  67;

GARRISON         N/A     69  50  50 S9        29.98F
6HR MIN TEMP:  49; 6HR MAX TEMP:  69;

WILLISTON      SUNNY     70  52  52 E3        29.96F
6HR MIN TEMP:  45; 6HR MAX TEMP:  70;

DICKINSON      SUNNY     70  49  47 SE8       29.95F
6HR MIN TEMP:  44; 6HR MAX TEMP:  71;

HETTINGER      SUNNY     73  52  47 S7        29.98F
6HR MIN TEMP:  42; 6HR MAX TEMP:  73;

$$

 *****  OTHER OBSERVATIONS NORTHEAST NORTH DAKOTA  *****

CITY           SKY/WX    TMP DP  RH WIND       PRES   REMARKS
WALHALLA       FAIR      64  59  82 SE9       30.11F
LANGDON        FAIR      68  52  56 SE13      30.10F
CAVALIER       FAIR      63  54  72 S5        30.12F
GRAFTON        FAIR      63  55  77 SE6       30.14F
CANDO          FAIR      70  50  49 SE18      30.09F
FORT TOTTEN    NOT AVBL
ROLLA            N/A     68  46  45 SE18      30.07F
RUGBY          FAIR      70  50  49 SE16G22   30.02F
 ***** THE ABOVE OBSERVATIONS ARE NON NWS ARE NOT QUALITY
        CONTROLLED AND MAY MIS-REPORT RAIN FOR SNOW...
$$

 *****  OTHER OBSERVATIONS SOUTHEAST NORTH DAKOTA *****

CITY           SKY/WX    TMP DP  RH WIND       PRES   REMARKS
COOPERSTOWN    FAIR      72  48  43 S17G23    30.09F
VALLEY CITY    FAIR      70  52  52 S12G20    30.11F
OAKES          NOT AVBL
GWINNER        FAIR      72  54  53 SE13G23   30.10F
SHEYENNE NWR     N/A     67  55  64 SE10      29.95S
BUFFALO        NOT AVBL
WYNDMERE       NOT AVBL
 ***** THE ABOVE OBSERVATIONS ARE NON NWS ARE NOT QUALITY
       CONTROLLED AND MAY MIS-REPORT RAIN FOR SNOW...
$$

  *****  WEATHER ACROSS NORTHERN MINNESOTA  *****

CITY           SKY/WX    TMP DP  RH WIND       PRES   REMARKS
FLAG ISLAND    CLOUDY    57  50  77 SE7       30.17F
WARROAD        MOSUNNY   57  54  88 E5        30.18F
ROSEAU         MOSUNNY   61  55  82 CALM      30.17F
HALLOCK        SUNNY     66  55  68 S10       30.12F
THF RVR FALLS  MOSUNNY   64  53  67 SE3       30.16F
6HR MIN TEMP:  46; 6HR MAX TEMP:  64;

HALSTAD        NOT AVBL
FOSSTON        CLOUDY    66  48  52 S5        30.16F
BAUDETTE       MOSUNNY   62  52  69 E5        30.18F
6HR MIN TEMP:  47; 6HR MAX TEMP:  62;

WASKISH        SUNNY     59  55  88 E3        30.18F
CROOKSTON      CLOUDY    66  54  63 SE7       30.14F
$$
  *****  WEATHER ACROSS CENTRAL AND WEST MINNESOTA  *****

CITY           SKY/WX    TMP DP  RH WIND       PRES   REMARKS
BEMIDJI        MOSUNNY   58  52  81 S5        30.18F
PARK RAPIDS    SUNNY     61  51  70 CALM      30.17F
6HR MIN TEMP:  51; 6HR MAX TEMP:  61;

WADENA         MOSUNNY   63  54  72 SE3       30.16F
DETROIT LAKES  SUNNY     63  54  72 SE8       30.16F
MOORHEAD       SUNNY     68  54  60 S8        30.13F
FERGUS FALLS   SUNNY     66  54  63 SE6       30.15F
ELBOW LAKE     FAIR      68  55  63 SE8       30.14F
MORRIS MN      SUNNY     70  54  56 SE3       30.13F
STAPLES        SUNNY     63  52  67 NE3       30.17F
WHEATON        NOT AVBL
$$
  *****  WEATHER ELSEWHERE ACROSS MINNESOTA  *****

CITY           SKY/WX    TMP DP  RH WIND       PRES   REMARKS
DULUTH         MOSUNNY   64  53  67 E8        30.19F
6HR MIN TEMP:  49; 6HR MAX TEMP:  64;

INTRNTL FALLS  MOSUNNY   66  49  54 SE5       30.19F
6HR MIN TEMP:  42; 6HR MAX TEMP:  66;

ELY            SUNNY     66  45  45 E5        30.19F
CLOQUET        SUNNY     63  50  63 E10       30.18F
BRAINERD       SUNNY     65  53  65 CALM      30.17F
6HR MIN TEMP:  48; 6HR MAX TEMP:  65;

HIBBING        CLOUDY    61  51  70 SE5       30.19F
6HR MIN TEMP:  39; 6HR MAX TEMP:  61;

ALEXANDRIA     SUNNY     64  55  72 E5        30.17F
6HR MIN TEMP:  50; 6HR MAX TEMP:  64;

SAINT CLOUD    SUNNY     64  54  69 VRB6      30.15F
6HR MIN TEMP:  51; 6HR MAX TEMP:  64;

MINNEAPOLIS    SUNNY     67  55  65 NE8       30.13F
6HR MIN TEMP:  52; 6HR MAX TEMP:  68;

$$

  *****  WEATHER ACROSS SOUTH DAKOTA  *****

CITY           SKY/WX    TMP DP  RH WIND       PRES   REMARKS
SIOUX FALLS    CLOUDY    69  56  62 S9        30.12F
6HR MIN TEMP:  52; 6HR MAX TEMP:  69;

BROOKINGS      CLOUDY    66  53  63 SE8       30.12F
WATERTOWN      PTSUNNY   71  54  54 S13G20    30.11F
6HR MIN TEMP:  49; 6HR MAX TEMP:  71;

HURON          SUNNY     72  48  42 S16G24    30.08F
6HR MIN TEMP:  47; 6HR MAX TEMP:  72;

SISSETON         N/A     73  53  49 S12G18    30.10F
ABERDEEN       MOSUNNY   73  46  38 S16       30.07F
6HR MIN TEMP:  49; 6HR MAX TEMP:  74;

MITCHELL       SUNNY     73  50  44 S15       30.09F
PIERRE         MOSUNNY   70  47  43 SE17      29.99F
6HR MIN TEMP:  58; 6HR MAX TEMP:  72;

MOBRIDGE       SUNNY     71  46  40 SE18      29.98F
RAPID CITY     SUNNY     78  50  37 VRB3      29.98F
6HR MIN TEMP:  45; 6HR MAX TEMP:  78;

$$

  *****  SOME WEATHER IN NEARBY STATES *****

CITY           SKY/WX    TMP DP  RH WIND       PRES   REMARKS
GLASGOW MT     SUNNY     71  52  50 SE13G20   29.89F
6HR MIN TEMP:  47; 6HR MAX TEMP:  71;

GREAT FALLS MT CLOUDY    67  47  48 S15       29.91S
6HR MIN TEMP:  62; 6HR MAX TEMP:  67;

CHEYENNE WY    MOSUNNY   70  38  31 SW7       30.15F
6HR MIN TEMP:  49; 6HR MAX TEMP:  75;

SCOTTSBLUFF NE SUNNY     72  48  42 NW5       30.05F
6HR MIN TEMP:  45; 6HR MAX TEMP:  72;

OMAHA NE       CLOUDY    65  55  70 N5        30.12F
6HR MIN TEMP:  58; 6HR MAX TEMP:  65;

DES MOINES IA  CLOUDY    66  57  72 VRB3      30.08F
6HR MIN TEMP:  60; 6HR MAX TEMP:  66; 6HR PCP: TRACE;

DAVENPORT IA   LGT RAIN  63  59  87 N8        30.04F FOG
6HR MIN TEMP:  59; 6HR MAX TEMP:  65; 6HR PCP:  0.01;

CHICAGO IL     CLOUDY    62  59  90 N6        30.00F
6HR MIN TEMP:  58; 6HR MAX TEMP:  62; 6HR PCP:  0.77;

EAU CLAIRE WI  PTSUNNY   67  52  58 NE9       30.12F
6HR MIN TEMP:  50; 6HR MAX TEMP:  68;

LA CROSSE WI   PTSUNNY   69  56  62 E7        30.08F
6HR MIN TEMP:  60; 6HR MAX TEMP:  69;

$$

  *****  SOME NATIONAL WEATHER *****

CITY           SKY/WX    TMP DP  RH WIND       PRES   REMARKS
LA GUARDIA NY  CLOUDY    63  57  81 NE15      30.18F
6HR MIN TEMP:  58; 6HR MAX TEMP:  64; 6HR PCP: TRACE;              C1F1C2F2C3F3C4F4C5F5C6F6C7F7C8F8C9F9CaFaCbFbCcFcCdFdCe!



USA.gov is the U.S. government's official web portal to all federal, state and local government web resources and services.